Theta_e
354 361 362 360 358 359 360 362 364 365 364 362 362 361 361 361 360 359 359 360 361 360 361 358 355 358 358 353 350 350 353 356 356 355 353 352 349 348 347 346 344 343 344
357 361 362 361 359 359 359 360 362 364 364 364 363 362 362 361 360 360 360 360 359 360 361 358 355 355 358 357 353 351 352 355 355 354 354 353 352 348 347 345 342 346 344
357 360 361 361 359 358 359 358 360 361 363 363 363 362 361 361 360 360 361 360 359 360 360 359 356 355 355 357 358 355 353 351 352 354 354 354 355 351 349 347 344 344 344
359 361 361 361 360 358 358 358 357 359 359 360 361 361 361 362 361 360 360 360 359 360 359 358 356 354 354 356 357 358 358 356 354 352 353 354 351 354 350 348 347 346 344
359 361 363 362 361 359 358 358 358 356 356 356 357 357 358 359 360 360 360 360 360 360 358 357 356 355 354 355 356 357 358 359 359 357 355 355 354 353 353 350 349 348 346
359 360 363 363 362 360 358 357 357 357 357 356 355 355 355 355 356 357 358 358 359 360 360 359 359 359 356 355 357 357 357 358 358 353 355 355 357 358 354 354 352 352 349
359 359 358 362 362 361 359 359 357 357 357 356 356 355 354 355 356 357 357 357 357 358 359 360 361 361 359 358 357 357 357 354 351 346 348 353 354 355 353 354 356 354 352
355 353 354 360 361 361 360 360 359 358 357 356 356 356 356 356 357 357 357 357 358 359 359 360 362 362 362 360 358 356 356 352 347 344 344 346 352 359 357 356 356 357 355
347 349 351 352 359 359 361 360 359 359 359 359 358 358 357 357 357 357 357 357 357 358 359 360 360 360 360 360 359 357 356 353 347 342 341 342 352 356 356 357 361 358 358
343 344 353 357 356 355 353 351 349 349 348 348 350 350 351 356 359 358 358 358 358 358 357 359 359 359 358 358 358 357 357 355 350 344 343 342 351 353 352 353 355 357 360
338 338 338 338 340 343 346 345 347 345 344 343 348 344 349 351 354 357 356 356 355 356 357 359 359 358 358 358 357 357 357 349 347 344 344 350 352 352 352 352 353 355 357
329 330 331 332 333 333 332 339 339 338 341 343 344 346 345 348 351 347 350 352 351 353 354 356 356 357 357 354 352 357 354 349 345 344 343 355 352 352 352 352 352 353 354
328 328 329 334 334 330 329 330 332 334 335 338 339 341 342 340 342 342 343 344 348 352 349 353 353 355 354 353 352 352 351 351 350 346 345 354 354 353 352 353 353 352 352
327 329 329 333 335 335 330 329 330 329 331 331 335 337 335 331 334 336 335 338 340 342 345 346 345 348 350 352 353 352 351 351 350 350 351 356 353 354 354 354 354 354 353
326 329 330 334 337 338 335 332 332 331 330 332 332 335 334 331 332 330 331 330 332 335 336 338 339 341 344 346 347 348 349 350 352 352 353 359 353 353 353 353 355 355 355
328 330 332 332 338 335 337 338 335 337 335 335 334 332 332 332 334 330 329 328 327 327 327 327 329 333 336 341 343 347 348 349 350 351 353 353 354 352 352 352 354 356 356
330 333 334 333 335 336 334 336 338 335 333 333 332 336 333 333 334 334 329 328 328 329 329 327 326 326 326 331 338 341 344 348 350 351 352 353 353 352 352 352 352 355 356
331 333 335 329 330 335 337 336 334 334 333 332 332 333 332 332 332 333 329 329 330 330 327 326 325 322 322 322 325 331 338 342 346 349 350 353 354 351 352 351 351 352 354
334 334 335 336 334 334 337 336 337 337 335 333 333 333 333 332 331 332 329 329 332 329 327 325 323 323 321 322 321 324 329 334 340 343 347 350 352 353 351 352 350 350 351
334 336 337 336 338 340 338 337 335 334 333 333 332 333 335 333 332 332 330 331 330 326 324 323 326 323 322 321 320 321 323 326 332 338 342 346 348 351 351 351 352 349 349
334 336 338 337 340 339 334 331 330 328 330 331 332 334 334 334 333 333 329 327 328 326 327 325 322 322 319 322 319 319 320 326 330 332 337 339 344 347 348 349 350 349 348
335 337 338 339 341 339 335 334 334 334 332 333 332 333 333 332 330 327 327 324 323 320 323 322 322 318 319 321 317 317 313 317 321 327 332 337 342 342 343 345 348 351 351
334 335 337 337 336 336 337 334 334 333 331 328 328 327 327 326 324 323 322 320 320 319 317 319 320 320 316 319 323 317 313 311 316 323 334 332 342 339 341 344 347 349 356
332 329 328 332 333 333 333 331 329 325 322 323 322 321 321 322 320 319 318 318 318 316 316 315 315 315 315 313 319 321 324 321 315 315 323 330 338 341 347 342 343 347 350
326 329 332 332 330 330 328 326 322 321 319 319 318 319 320 319 317 316 316 316 314 312 312 311 310 310 309 309 311 316 320 320 323 318 315 319 327 336 339 343 344 345 350
326 328 329 329 327 326 324 322 320 318 316 313 313 312 312 312 311 313 313 311 310 310 310 310 309 310 309 309 310 312 314 315 316 317 316 321 322 328 335 337 341 345 346
Wind_Speed
6 11 6 5 4 6 8 8 10 13 13 13 12 12 11 11 11 11 10 8 7 5 4 3 3 2 3 4 5 5 4 4 4 5 5 6 6 6 6 5 5 8 7
8 11 7 5 4 5 7 9 10 10 11 11 12 12 11 11 11 10 9 8 7 6 4 3 2 2 2 3 3 3 3 3 3 3 4 7 6 6 5 5 3 9 7
10 11 10 5 5 6 5 6 7 7 8 10 11 10 10 10 11 11 10 9 8 7 6 5 4 3 3 3 3 3 3 3 4 5 6 11 5 10 7 6 5 6 7
8 8 9 8 8 7 7 6 7 8 7 6 7 7 8 8 8 8 7 7 6 5 5 5 5 5 5 5 5 5 5 5 5 6 10 9 6 14 9 7 6 6 6
9 10 10 8 8 10 8 6 7 7 7 6 5 4 5 5 5 5 5 5 5 6 6 6 6 7 6 6 7 7 7 7 8 10 12 9 6 11 11 10 9 9 9
9 12 11 9 8 8 10 9 6 6 5 5 4 3 2 1 2 3 4 5 6 7 8 8 9 8 8 8 8 8 9 9 9 14 12 8 8 10 11 12 12 9 12
8 10 13 8 8 8 9 8 8 7 6 4 3 1 2 3 4 5 6 7 8 9 10 10 9 9 9 9 9 9 10 11 13 14 12 9 12 14 11 11 12 12 11
9 8 10 10 10 10 9 7 7 6 6 4 3 2 3 4 5 7 8 9 10 11 12 12 10 10 10 10 10 11 11 12 13 14 14 12 9 10 10 12 14 15 15
10 9 7 9 12 12 10 10 10 10 9 8 5 4 4 5 6 7 8 9 10 10 11 12 12 12 12 12 12 13 13 14 15 12 13 10 8 12 12 14 15 16 17
9 9 10 7 8 6 10 9 10 9 9 7 7 7 6 7 9 11 9 10 7 9 12 12 13 14 14 14 15 15 15 16 17 16 13 11 8 10 12 14 16 16 18
9 9 9 9 8 8 8 7 8 7 5 1 4 4 7 5 6 7 3 3 7 11 13 13 14 14 15 17 19 19 18 12 16 13 11 10 12 13 14 17 17 18 18
10 11 10 9 7 8 6 6 6 5 6 7 7 7 6 6 6 8 8 6 10 12 13 15 16 16 15 13 11 22 11 15 14 14 11 9 12 15 17 19 19 18 19
10 9 11 9 8 9 8 6 5 5 5 4 6 6 5 6 6 6 6 6 7 6 9 7 9 11 13 11 11 11 12 12 9 10 14 12 13 16 18 20 20 20 20
11 10 10 10 8 7 6 6 5 6 5 6 6 8 5 5 7 7 6 8 7 7 9 10 8 11 13 14 16 16 17 14 10 9 12 12 14 17 19 21 21 21 21
11 9 9 8 6 5 4 5 5 4 5 4 4 5 6 6 6 6 6 7 8 8 9 9 10 10 12 14 14 16 16 17 17 11 9 8 15 17 19 23 22 22 22
9 9 8 7 6 6 4 3 2 2 3 2 2 4 5 5 5 7 7 8 7 8 9 10 10 11 12 13 15 15 16 16 17 16 13 13 17 18 19 22 24 22 22
7 6 6 5 5 3 3 1 2 2 3 3 4 2 5 5 6 8 8 9 9 9 12 10 11 11 12 13 15 15 16 18 16 17 15 13 12 20 21 20 23 22 21
6 7 6 5 4 4 2 3 4 4 5 5 5 5 6 7 7 8 9 10 10 11 11 11 11 12 12 12 13 14 14 14 19 16 15 14 13 13 17 21 23 22 21
8 7 8 7 7 5 4 6 5 6 7 7 7 7 8 9 10 9 10 11 12 12 12 12 12 13 13 13 14 14 14 15 16 16 19 18 18 15 12 16 23 21 21
10 9 8 7 6 6 6 6 7 7 8 8 8 8 10 10 13 11 11 13 13 13 13 13 14 14 15 15 14 14 14 15 16 15 17 16 18 18 17 17 12 14 22
10 10 9 8 6 6 7 8 9 10 9 9 9 11 12 12 14 13 12 15 14 15 15 16 16 17 14 14 14 14 15 16 18 17 17 16 18 18 18 16 11 11 12
11 10 8 8 7 6 7 7 8 9 10 10 11 12 13 14 14 15 16 15 17 15 17 17 17 15 14 13 14 13 15 13 14 16 16 16 19 16 18 19 16 15 13
10 9 7 6 5 5 7 6 6 8 9 10 11 12 14 16 18 19 18 16 16 15 14 16 16 18 15 14 16 14 11 13 11 11 14 16 15 15 16 16 14 14 13
5 3 2 4 5 6 8 6 8 9 11 11 13 13 15 18 18 19 18 17 16 13 14 13 10 11 11 12 15 14 17 16 14 12 12 11 10 12 12 11 11 13 14
3 6 7 8 8 7 7 8 9 11 12 12 13 18 17 16 16 17 17 17 16 13 13 12 14 11 10 11 13 14 18 14 16 15 14 13 13 10 11 11 11 11 12
7 8 7 7 6 7 9 10 11 14 15 14 15 15 13 13 14 17 16 14 15 13 14 11 11 13 11 10 11 11 14 13 13 13 14 15 15 14 8 11 11 7 7
Wind_Direction
113 106 113 84 71 90 94 96 109 119 124 136 148 150 144 141 144 146 149 157 154 154 141 110 97 88 96 105 112 122 126 127 126 124 123 118 117 117 118 123 201 115 111
112 104 105 118 111 93 103 117 119 118 125 136 142 143 142 145 147 151 159 165 167 169 176 175 167 172 148 138 140 142 148 158 169 173 177 175 155 150 153 159 274 97 136
97 116 121 101 102 93 83 89 101 108 123 135 136 139 146 151 156 161 166 173 182 189 196 205 208 216 222 211 200 203 199 203 220 224 234 255 174 164 183 182 183 152 160
102 101 108 115 112 105 100 90 91 104 106 109 122 138 148 154 159 166 174 181 195 214 223 224 234 237 240 247 245 241 246 242 242 248 246 240 246 155 189 202 196 191 187
132 111 104 114 118 119 111 104 103 103 104 111 125 140 150 157 166 172 186 211 221 225 235 242 238 239 241 246 253 257 256 257 253 249 259 264 243 157 184 203 199 204 209
109 112 108 108 114 119 119 119 109 93 89 97 93 97 125 175 231 247 244 242 248 257 257 255 258 253 250 248 245 243 249 254 259 254 245 250 248 139 180 207 230 224 201
102 107 97 90 100 102 106 112 110 109 100 89 84 53 324 299 291 281 276 273 268 266 267 268 268 262 254 249 248 248 244 245 256 266 265 252 264 154 180 219 224 226 217
94 95 108 103 88 88 92 95 94 92 87 74 58 15 310 297 293 291 289 286 286 284 283 279 274 266 259 255 252 250 246 249 254 253 260 263 240 157 202 221 231 224 219
106 98 96 111 114 93 73 75 77 68 61 48 32 4 336 313 291 284 278 276 276 280 282 282 278 273 268 260 251 246 246 249 262 266 262 252 211 183 209 231 234 230 226
96 95 109 110 101 103 104 87 78 70 64 65 53 23 332 276 235 233 238 242 274 278 276 270 270 271 268 264 260 254 247 250 253 257 252 249 166 186 216 233 236 236 231
107 101 84 84 77 77 74 92 124 104 111 155 143 56 280 309 307 290 68 323 292 280 276 272 268 261 259 259 253 247 245 253 253 246 244 224 180 197 223 233 231 233 234
103 85 75 69 78 82 78 57 61 56 41 28 20 1 338 337 334 296 281 252 261 261 263 254 251 252 253 258 251 221 235 248 248 250 250 184 186 209 225 236 234 231 232
100 94 85 86 67 61 63 51 40 37 21 40 24 357 0 326 356 319 315 310 323 244 281 274 265 245 270 282 280 276 262 263 256 255 254 188 194 214 232 239 236 234 233
108 110 105 97 93 57 59 52 61 57 50 46 40 9 10 341 348 344 331 319 301 311 319 291 304 309 300 286 281 276 276 273 265 260 256 178 195 218 232 240 238 236 237
130 125 110 106 94 93 63 74 64 56 49 46 39 48 13 354 357 346 339 317 321 319 309 309 304 300 296 284 275 270 269 267 268 266 263 207 199 213 230 246 243 238 236
132 144 129 142 142 125 94 64 84 58 122 52 28 31 1 340 358 336 327 336 327 326 324 310 307 305 290 291 285 275 271 267 264 260 258 249 193 205 219 237 245 240 237
163 158 174 178 162 170 147 211 347 290 330 315 329 306 329 326 338 325 327 320 324 330 305 306 301 294 286 282 273 268 272 263 259 259 256 257 256 199 211 223 237 241 238
206 194 216 245 192 205 265 275 300 309 296 296 295 301 301 297 305 302 310 312 322 305 310 308 300 297 292 289 286 280 279 267 276 255 249 251 240 259 205 213 220 230 238
224 235 238 241 268 271 258 283 279 282 274 289 291 288 293 298 297 299 299 304 307 297 298 299 295 296 296 287 280 274 271 266 259 262 255 243 244 247 246 211 209 215 227
229 236 252 265 284 291 289 272 272 274 274 273 283 288 301 292 298 296 295 294 295 290 289 293 297 290 289 284 281 280 279 275 270 264 261 256 250 242 240 246 218 212 213
231 239 247 260 274 287 292 295 290 284 290 287 286 301 300 298 301 297 290 294 291 287 291 293 284 282 278 277 276 273 268 255 250 252 254 255 254 246 242 243 235 247 213
239 248 258 278 285 291 291 298 302 303 298 302 299 291 288 291 298 299 299 297 294 292 289 287 283 282 277 273 272 278 277 263 252 244 245 245 246 247 243 233 237 241 247
250 271 296 309 315 329 344 292 291 286 270 282 296 309 304 306 302 298 298 296 293 287 281 282 281 280 280 276 271 269 271 262 276 260 235 234 242 239 239 248 239 232 239
282 24 25 58 41 49 18 354 346 308 308 317 300 299 309 300 301 297 295 297 293 292 294 289 287 300 296 288 286 261 251 268 274 275 271 268 230 253 259 257 241 229 235
155 95 89 78 62 40 10 354 330 322 316 311 307 307 304 293 295 305 300 297 300 303 297 296 283 278 281 283 276 279 280 251 234 249 261 267 273 231 232 215 242 207 204
108 91 77 62 42 9 354 343 333 320 316 312 307 304 300 316 312 303 306 315 299 291 285 288 284 274 272 271 277 276 271 268 259 240 249 249 260 271 260 220 229 232 239